Weather History for Tampa, FL

Change the Weather History Date:

Wednesday, September 18, 2013

  Actual Average Record
Temperature  
Mean Temperature 84 °F 82 °F  
Max Temperature 91 °F 89 °F 95 °F (1960)
Min Temperature 76 °F 74 °F 62 °F (1981)
Degree Days  
Heating Degree Days 0 0  
Month to date heating degree days 0 0  
Since 1 July heating degree days 0 0  
Cooling Degree Days 19 17  
Month to date cooling degree days 332 314  
Year to date cooling degree days 2969 2829  
Growing Degree Days 33 (Base 50)    
Moisture  
Dew Point 72 °F    
Average Humidity 75    
Maximum Humidity 94    
Minimum Humidity 56    
Precipitation  
Precipitation 0.12 in 0.21 in 3.57 in (1947)
Month to date precipitation 3.53 4.26  
Year to date precipitation 46.05 37.98  
Sea Level Pressure  
Sea Level Pressure 30.01 in    
Wind  
Wind Speed 7 mph (NE)    
Max Wind Speed 15 mph    
Max Gust Speed 23 mph    
Visibility 10 miles    
Events Rain    
T = Trace of Precipitation, MM = Missing Value Source: NWS Daily Summary

Daily Weather History Graph

Daily Weather History Graph

Search for Another Location

Airport:

Trip Planner

Search our weather history database for the weather conditions in past years. The results will help you decide how hot, cold, wet, or windy it might be!

Date:

Astronomy

Sep. 18, 2013 Rise Set
Actual Time 7:16 AM EDT 7:31 PM EDT
Civil Twilight 6:53 AM EDT 7:54 PM EDT
Nautical Twilight 6:26 AM EDT 8:21 PM EDT
Astronomical Twilight 5:58 AM EDT 8:49 PM EDT
Moon 6:54 PM EDT (9/18) 6:19 AM EDT (9/18)
Length of Visible Light 13h 01m
Length of Day
12h 14m
Waxing Gibbous, 99% of the Moon is Illuminated
Sep 18
Waxing Gibbous
Sep 19
Full
Sep 26
Last Quarter
Oct 4
New
Oct 11
First Quarter

Hourly Weather History & Observations

Time (EDT) Temp. Heat Index Dew Point Humidity Pressure Visibility Wind Dir Wind Speed Gust Speed Precip Events Conditions
12:53 AM 75.9 °F - 72.0 °F 87% 30.02 in 10.0 mi ENE 3.5 mph - N/A   Mostly Cloudy
1:53 AM 75.9 °F - 73.0 °F 91% 30.02 in 10.0 mi NNE 4.6 mph - N/A   Scattered Clouds
2:53 AM 75.9 °F - 73.0 °F 91% 30.00 in 10.0 mi NE 3.5 mph - N/A   Scattered Clouds
3:53 AM 75.9 °F - 73.0 °F 91% 30.00 in 10.0 mi NNE 4.6 mph - N/A   Scattered Clouds
4:53 AM 75.9 °F - 73.0 °F 91% 29.99 in 10.0 mi Variable 4.6 mph - N/A   Scattered Clouds
5:53 AM 75.9 °F - 72.0 °F 87% 30.00 in 10.0 mi ENE 3.5 mph - N/A   Mostly Cloudy
6:53 AM 75.9 °F - 73.0 °F 91% 30.01 in 10.0 mi NE 3.5 mph - N/A   Mostly Cloudy
7:53 AM 75.9 °F - 73.0 °F 91% 30.01 in 10.0 mi NNE 6.9 mph - N/A   Scattered Clouds
8:53 AM 79.0 °F - 73.0 °F 82% 30.02 in 10.0 mi NE 5.8 mph - N/A   Scattered Clouds
9:53 AM 81.0 °F 85.8 °F 73.0 °F 77% 30.04 in 9.0 mi Variable 5.8 mph - N/A   Scattered Clouds
10:53 AM 84.0 °F 89.6 °F 72.0 °F 67% 30.04 in 10.0 mi NE 10.4 mph 17.3 mph N/A   Mostly Cloudy
11:04 AM 84.2 °F 89.6 °F 71.6 °F 66% 30.03 in 10.0 mi ENE 8.1 mph - N/A   Scattered Clouds
11:53 AM 86.0 °F 92.2 °F 72.0 °F 63% 30.03 in 10.0 mi ENE 8.1 mph 20.7 mph N/A   Scattered Clouds
12:53 PM 89.1 °F 95.0 °F 71.1 °F 55% 30.02 in 10.0 mi NE 11.5 mph 17.3 mph N/A   Scattered Clouds
1:53 PM 90.0 °F 96.4 °F 71.1 °F 54% 30.01 in 10.0 mi East 6.9 mph - N/A   Mostly Cloudy
2:53 PM 84.9 °F 89.4 °F 70.0 °F 61% 30.00 in 10.0 mi NE 11.5 mph 16.1 mph 0.00 in   Mostly Cloudy
3:53 PM 86.0 °F 91.5 °F 71.1 °F 61% 29.98 in 10.0 mi East 9.2 mph 17.3 mph N/A   Mostly Cloudy
4:53 PM 84.9 °F 90.1 °F 71.1 °F 63% 29.97 in 10.0 mi ENE 8.1 mph - N/A   Mostly Cloudy
5:53 PM 86.0 °F 90.7 °F 70.0 °F 59% 29.98 in 10.0 mi ENE 5.8 mph - N/A   Mostly Cloudy
6:53 PM 84.9 °F 90.1 °F 71.1 °F 63% 30.00 in 10.0 mi ENE 8.1 mph - N/A   Mostly Cloudy
7:53 PM 79.0 °F - 70.0 °F 74% 30.03 in 10.0 mi ENE 6.9 mph - N/A   Overcast
8:53 PM 78.1 °F - 73.0 °F 84% 30.03 in 10.0 mi ENE 6.9 mph - 0.12 in Rain Light Rain
9:53 PM 75.9 °F - 72.0 °F 87% 30.05 in 10.0 mi ENE 4.6 mph - N/A   Scattered Clouds
10:53 PM 77.0 °F - 72.0 °F 84% 30.05 in 10.0 mi NE 4.6 mph - N/A   Mostly Cloudy
11:53 PM 77.0 °F - 73.0 °F 88% 30.04 in 10.0 mi NE 5.8 mph - N/A   Scattered Clouds